Regional Weather Roundup
Issued by NWS

Home | Current Version | Previous Version | Graphics & Text | Print | Product List | Glossary On
Versions: 1 2 3 4 5 6 7 8 9 10 11 12 13 14 15 16 17 18 19 20 21 22 23 24 25 26 27 28 29 30 31 32 33 34 35 36 37 38 39 40 41 42 43 44 45 46 47 48 49 50
000
ASUS45 KTFX 041519
RWRMT
MONTANA REGIONAL WEATHER ROUNDUP
NATIONAL WEATHER SERVICE GREAT FALLS MT
900 AM MDT FRI SEP 04 2015

NOTE: "FAIR" INDICATES FEW OR NO CLOUDS BELOW 12000 FEET WITH NO
SIGNIFICANT WEATHER AND/OR OBSTRUCTIONS TO VISIBILITY.

MTZ001>007-043-041600-
WEST OF THE DIVIDE

CITY           SKY/WX    TMP DP  RH WIND       PRES   REMARKS
KALISPELL      CLOUDY    48  45  89 N5        29.98F
MISSOULA       CLOUDY    45  44  97 CALM      29.99R
BUTTE          CLOUDY    45  43  93 NW5       30.01R
MULLAN PASS    SUNNY     40  36  86 CALM      29.98S
DEER LODGE       N/A     45  45 100 E5        30.03S
EUREKA           N/A     45  43  93 NW5       30.04R
HAMILTON         N/A     46  45  93 NW6       29.97S
LIBBY            N/A     46  37  71 CALM      30.02S
PLAINS           N/A     47  41  80 CALM      30.00S
RONAN            N/A     47  45  93 CALM      30.03R
THOMPSON FALLS   N/A     38  36  92 CALM      30.05R
$$

MTZ008-052>055-041600-
SOUTHWEST MONTANA

CITY           SKY/WX    TMP DP  RH WIND       PRES   REMARKS
BOZEMAN        CLOUDY    51  47  86 CALM      29.97R
DILLON         CLOUDY    48  44  86 NE3       29.96S
W YELLOWSTONE  SUNNY     46  45  93 CALM      29.99R
THREE FORKS      N/A     52  31  44 CALM      29.97S
TWIN BRIDGES     N/A     50  42  73 N3        29.96R
$$

MTZ009-010-012-014-046-048-049-054-041600-
EAST SLOPES AND CENTRAL MONTANA

CITY           SKY/WX    TMP DP  RH WIND       PRES   REMARKS
CUT BANK       RAIN      48  47  96 NE7       30.01S FOG
GREAT FALLS    CLOUDY    50  47  89 NE7       29.97R
MALMSTROM AFB  CLOUDY    49  49  97 NE3       29.98R
HELENA         LGT RAIN  52  47  83 SW8       29.98R
CONRAD           N/A     50  50 100 NE5       30.02R
$$

MTZ011-013-016-021-045-047-050-051-041600-
NORTH CENTRAL MONTANA

CITY           SKY/WX    TMP DP  RH WIND       PRES   REMARKS
HAVRE          CLOUDY    53  47  79 E10       29.99R
LEWISTOWN      CLOUDY    50  43  77 E13       30.01R
N BAR RANCH    CLOUDY    46  43  87 N6        30.03S
CHINOOK          N/A     54  45  71 E6        30.00R
FORT BENTON      N/A     54  43  66 E12       29.99S
$$

MTZ017>020-022>027-061-062-041600-
NORTHEAST MONTANA

CITY           SKY/WX    TMP DP  RH WIND       PRES   REMARKS
GLASGOW        CLOUDY    59  40  49 NE23G30   29.93F
JORDAN           N/A     58  43  57 N16       29.93R
SIDNEY         CLOUDY   N/A N/A N/A NW18        N/A
WOLF POINT     MOSUNNY   63  47  55 N17       29.91F
MALTA            N/A     56  43  61 NE9       29.95S
PLENTYWOOD       N/A     57  48  72 N18       29.92F
POPLAR           N/A     63  48  59 N17       29.89F
SCOBEY           N/A     56  42  59 N16       29.95R
$$

MTZ028>42-056>058-041600-
SOUTHCENTRAL AND SOUTHEAST MONTANA

CITY           SKY/WX    TMP DP  RH WIND       PRES   REMARKS
BAKER          CLOUDY    64  53  67 NW12      29.87S
BILLINGS       PTSUNNY   55  43  63 NE10      29.98R
LIVINGSTON     CLOUDY    50  45  83 E12       29.97S
MILES CITY     CLOUDY    61  46  57 N12       29.87F
EKALAKA          N/A     62  54  75 N8        29.87R
FORSYTH          N/A     57  45  62 W8        29.91R
LAUREL           N/A     54  45  71 N5        29.97R
ROUNDUP          N/A     52  43  71 N7        29.91R
$$

REGIONAL REPORTS...DAKOTAS

CITY           SKY/WX    TMP DP  RH WIND       PRES   REMARKS
WILLISTON      CLOUDY    61  52  72 NW21      29.84F
MINOT          CLOUDY    65  59  81 N13       29.81R
DICKINSON      CLOUDY    66  63  90 CALM      29.81R
BEACH          CLOUDY    63  54  72 N20       29.85S
CROSBY         CLOUDY    61  52  72 N12       29.89R
BISMARCK       CLOUDY    74  71  91 SE6       29.74S
GRAND FORKS    CLOUDY    76  71  85 SE14      29.76S
FARGO          PTSUNNY   79  72  79 SE21      29.76F
BUFFALO SD       N/A     65  61  87 N7        29.76S
RAPID CITY     MOSUNNY   72  55  55 SE3       29.82R
$$

REGIONAL REPORTS...WYOMING/IDAHO/WASHINGTON

CITY           SKY/WX    TMP DP  RH WIND       PRES   REMARKS
GILLETTE       SUNNY     65  50  58 N10       29.93S
SHERIDAN       SUNNY     62  43  49 NW8       29.95S
BUFFALO WY     SUNNY     61  45  55 N10       29.98S
CODY           MOSUNNY   54  45  71 NE10      29.97S
YELLOWSTONE LA   N/A     54  45  71 CALM      30.04F
IDAHO FALLS    MOSUNNY   54  38  54 SW15      29.91S
SALMON         CLOUDY    46  45  93 N3        29.99R
BOISE          MOSUNNY   51  39  63 W3        29.85S
SPOKANE        MOSUNNY   46  35  65 N3        29.96S
$$

REGIONAL REPORTS...ALBERTA

CITY           SKY/WX    TMP DP  RH WIND       PRES   REMARKS
EDMONTON       CLOUDY    43  37  81 NW8       30.16R
CALGARY        CLOUDY    41  37  87 N15       30.10R
LETHBRIDGE     DRIZZLE   45  45 100 NW13      30.04R FOG
MEDICINE HAT   LGT RAIN  52  50  93 NE5       30.02S FOG
WATERTON GATE    N/A     43  39  87 N3          N/A
CARDSTON         N/A     43  39  87 N7          N/A
MILK RIVER       N/A     45  43  93 N10         N/A
ONEFOUR          N/A     50  46  87 N1          N/A
$$

REGIONAL REPORTS...SASKATCHEWAN

CITY           SKY/WX    TMP DP  RH WIND       PRES   REMARKS
SWIFT CURRENT  CLOUDY    50  50 100 E14       30.01F
REGINA         PTSUNNY   55  50  82 N12       30.00R
SASKATOON      CLOUDY    50  45  81 NE6       30.10R
CYPRESS HILLS    N/A     48  45  87 NW3         N/A
VAL MARIE        N/A     52  46  82 NE18        N/A
ROCKGLEN         N/A     50  48  93 N18G25      N/A
ASSINIBOIA       N/A     46  43  87 N7          N/A
$$



USA.gov is the U.S. government's official web portal to all federal, state and local government web resources and services.